Temperature
7 8 8 7 7 6 6 6 7 9 10 11 11 11 10 10 9 9 8 8 6 6 5 5 5 6 8 10 10 10 10 9 9 8 8 8 7 7 6 5 4 3 3 2
7 9 9 8 8 8 7 7 7 7 8 10 10 9 9 9 8 8 7 7 5 4 4 5 5 7 9 10 9 9 9 9 8 8 7 7 6 5 4 4 3 2 2 1
8 10 9 9 9 8 8 8 8 7 9 10 9 9 8 8 7 7 7 6 4 4 4 5 6 8 9 9 8 8 8 8 8 7 7 6 5 4 3 2 2 1 1 0
7 8 9 11 10 9 9 9 9 9 9 9 8 7 6 6 6 6 6 5 4 3 4 4 6 7 7 7 7 7 7 7 7 6 5 4 3 3 2 1 1 0 -0 -0
7 8 10 11 10 9 9 9 10 9 10 10 8 8 7 5 6 6 5 4 4 4 5 5 6 6 7 7 7 7 6 6 6 5 4 3 2 2 1 0 -0 -0 -1 -1
7 8 10 11 11 9 9 10 10 9 9 9 9 10 8 4 5 5 5 5 5 5 5 6 6 6 7 6 6 6 6 5 4 3 2 2 1 0 -0 -0 -1 -1 -1 -2
7 8 10 12 10 10 11 11 10 8 8 8 8 7 4 4 4 5 5 5 5 6 6 6 6 6 6 6 5 5 4 3 2 2 1 1 0 -0 -1 -1 -1 -2 -2 -2
8 8 10 12 10 11 11 9 8 7 7 6 4 3 4 4 4 5 5 5 5 6 6 6 6 6 6 5 4 3 3 2 1 1 0 -0 -1 -1 -1 -2 -2 -2 -2 -3
10 11 12 10 9 9 7 7 7 6 5 6 4 3 3 4 4 4 4 4 5 6 6 5 5 6 5 4 3 2 2 1 1 -0 -1 -1 -1 -2 -2 -2 -3 -3 -3 -3
10 11 11 10 9 7 7 5 5 5 5 6 5 4 4 4 4 4 4 4 5 5 5 5 4 4 4 3 2 1 1 0 -0 -1 -1 -2 -2 -2 -2 -3 -3 -4 -4 -5
10 11 11 10 7 7 7 6 5 5 5 6 6 4 4 4 4 4 4 4 5 5 5 4 3 3 2 2 1 0 -0 -1 -1 -1 -2 -2 -2 -3 -3 -3 -4 -5 -5 -6
12 12 11 10 7 7 6 5 5 5 4 4 5 5 4 4 4 4 4 4 4 4 3 3 2 1 1 -0 -0 -0 -1 -1 -2 -2 -2 -3 -3 -3 -4 -4 -5 -5 -6 -7
10 9 9 8 7 7 6 6 5 6 6 5 5 5 5 5 4 4 4 4 4 3 2 1 1 0 -1 -1 -1 -1 -1 -2 -2 -3 -3 -3 -3 -4 -4 -4 -5 -6 -7 -7
9 9 8 7 7 7 7 6 6 6 5 6 6 6 6 5 4 4 3 3 3 2 1 1 0 -1 -1 -2 -2 -2 -2 -2 -3 -3 -3 -4 -4 -4 -5 -5 -6 -6 -7 -8
9 8 8 8 7 6 6 6 6 6 6 5 5 5 5 4 3 3 2 2 1 1 0 -0 -1 -1 -2 -2 -2 -2 -3 -3 -3 -4 -4 -4 -5 -5 -6 -7 -7 -8 -8 -9
8 7 7 7 6 6 5 5 6 6 5 5 5 4 4 3 2 2 1 1 0 -0 -1 -1 -1 -2 -2 -3 -3 -3 -3 -4 -4 -4 -5 -5 -6 -6 -7 -8 -9 -9 -9 -10
7 5 5 5 5 5 5 6 6 6 6 5 5 4 3 2 1 1 -0 -0 -1 -1 -2 -2 -2 -2 -3 -3 -3 -4 -4 -4 -5 -5 -5 -6 -7 -8 -8 -9 -9 -10 -10 -10
8 8 8 8 7 6 5 6 6 6 6 5 4 3 3 2 1 -0 -1 -1 -2 -2 -3 -3 -3 -3 -3 -4 -4 -4 -4 -5 -5 -6 -6 -7 -8 -9 -9 -9 -10 -10 -10 -10
7 7 8 7 7 6 6 6 6 6 5 5 4 3 2 1 0 -1 -1 -2 -2 -2 -3 -3 -4 -4 -4 -4 -4 -5 -5 -5 -6 -6 -7 -8 -9 -9 -10 -10 -10 -10 -11 -11
7 7 7 6 6 6 7 7 6 6 5 5 4 3 1 0 -1 -1 -2 -2 -2 -2 -3 -3 -4 -4 -4 -4 -5 -5 -6 -6 -7 -7 -8 -9 -9 -10 -10 -10 -11 -11 -11 -11
6 7 6 6 5 6 7 7 6 6 5 4 3 2 1 -0 -1 -2 -2 -2 -3 -3 -4 -4 -4 -4 -5 -5 -5 -6 -6 -7 -7 -8 -9 -9 -10 -10 -10 -11 -11 -11 -11 -11
5 5 5 5 5 5 6 6 6 5 4 3 2 2 0 -1 -2 -2 -2 -2 -3 -3 -4 -4 -5 -5 -5 -5 -6 -6 -7 -8 -8 -9 -9 -10 -10 -10 -11 -11 -11 -11 -11 -12
4 4 4 4 4 5 5 5 5 5 4 3 2 1 0 -1 -2 -2 -2 -3 -3 -4 -4 -5 -5 -5 -5 -6 -6 -7 -8 -8 -9 -9 -10 -10 -11 -11 -11 -11 -12 -12 -12 -12
3 2 2 3 3 4 4 4 3 3 3 2 1 0 -0 -1 -2 -3 -2 -3 -4 -4 -5 -5 -5 -5 -6 -6 -7 -8 -8 -9 -9 -10 -10 -11 -11 -11 -11 -12 -12 -12 -12 -12
2 2 2 2 3 3 4 3 2 2 1 0 -1 -1 -2 -2 -2 -2 -3 -4 -4 -5 -5 -5 -6 -6 -6 -7 -8 -8 -9 -9 -10 -10 -11 -11 -11 -11 -12 -12 -12 -12 -12 -12
1 0 0 1 3 3 3 2 2 1 0 -1 -2 -3 -3 -3 -3 -3 -4 -4 -5 -5 -5 -6 -6 -7 -7 -8 -8 -9 -9 -10 -10 -10 -11 -11 -11 -12 -12 -12 -12 -12 -12 -12
-1 -1 -1 0 2 2 2 2 2 1 -0 -0 -2 -3 -3 -3 -4 -4 -4 -5 -5 -5 -6 -6 -7 -7 -8 -8 -9 -9 -10 -10 -10 -11 -11 -11 -11 -12 -12 -12 -12 -12 -11 -11
Wind_Speed
19 22 23 26 28 24 23 23 22 28 29 29 23 20 20 19 17 14 10 6 5 8 10 12 13 14 15 16 16 17 18 18 17 17 17 16 15 14 13 11 10 8 7 5
18 21 22 25 25 22 19 18 22 27 28 23 18 15 14 13 12 10 8 4 8 11 13 13 14 15 15 16 16 16 18 18 17 17 17 16 15 13 12 10 9 7 5 3
11 15 17 10 9 9 9 10 12 16 17 16 14 12 12 11 9 7 5 5 10 12 12 13 14 15 16 16 16 17 18 18 17 17 16 15 14 12 11 9 7 6 4 2
8 12 6 5 7 9 11 11 11 15 15 13 11 9 8 9 6 3 3 9 11 12 13 13 14 15 16 16 17 18 18 17 16 16 15 14 12 11 9 7 5 4 2 1
4 7 10 9 5 5 6 6 7 10 12 10 7 6 5 8 3 2 7 10 12 13 14 15 16 17 18 17 17 17 17 17 16 15 15 13 11 10 7 6 4 2 1 1
5 5 5 6 7 4 4 5 7 9 8 6 4 1 5 9 8 11 12 13 14 15 16 16 16 17 18 18 17 17 16 16 14 14 13 12 10 8 6 4 3 2 1 2
8 6 7 7 7 5 4 7 10 9 6 2 1 2 4 7 11 12 13 14 15 15 14 15 16 17 18 17 16 16 16 15 13 12 11 10 9 6 5 3 2 1 2 3
5 6 6 2 3 3 6 7 7 6 2 3 7 8 9 10 12 13 14 14 15 15 15 14 15 17 18 17 16 16 15 14 12 11 9 7 7 6 4 2 0 2 4 5
6 7 5 3 6 7 6 7 5 3 2 9 9 8 10 11 12 13 13 14 14 16 16 14 13 16 19 16 15 15 15 13 11 10 8 7 5 4 2 1 2 3 5 6
6 10 9 8 7 4 3 4 2 2 8 8 10 12 12 11 12 12 13 14 14 16 17 15 14 15 17 16 15 15 14 12 10 8 7 5 4 2 1 1 3 4 5 6
7 8 8 2 2 2 3 5 6 8 9 12 15 14 13 12 12 12 13 13 14 15 16 16 15 15 14 14 14 14 12 10 8 6 5 4 3 1 1 1 3 6 6 7
5 3 3 3 2 3 5 6 8 12 13 12 13 15 15 14 13 13 14 14 15 16 17 16 15 14 12 11 12 12 10 8 6 5 4 2 1 0 1 2 5 7 8 9
4 0 0 2 3 5 6 8 9 10 13 14 13 14 15 15 14 14 15 16 16 17 16 15 14 13 10 10 10 10 9 7 5 4 2 1 2 3 4 3 4 6 7 10
6 4 3 4 4 7 10 11 13 14 13 13 14 15 15 16 15 15 15 15 16 16 15 15 14 12 9 9 10 10 8 6 4 3 2 1 2 4 4 6 8 7 8 11
6 5 2 7 10 12 12 13 14 14 14 14 13 14 16 17 16 15 14 15 16 15 14 14 13 11 9 9 9 8 6 4 3 2 1 2 3 4 5 6 7 8 9 9
4 5 8 11 12 13 13 14 14 14 14 15 14 14 15 16 16 15 14 13 15 14 13 12 12 9 8 8 8 6 5 5 3 2 2 3 4 4 5 6 7 8 9 9
7 7 8 10 13 14 13 12 13 15 15 15 15 16 16 17 16 14 12 12 13 13 12 11 10 8 7 7 6 4 4 3 3 2 3 3 4 5 6 6 7 8 9 10
6 7 10 14 16 16 14 14 14 15 15 15 17 16 16 16 15 14 13 14 14 12 10 9 9 8 7 6 5 4 3 3 2 3 3 4 5 5 6 7 8 9 9 11
5 6 9 13 15 15 16 16 15 15 15 16 17 16 14 14 14 14 14 14 13 11 7 8 11 8 7 6 5 3 3 2 2 3 3 5 5 5 6 7 8 9 10 10
5 7 11 14 15 16 17 16 16 16 15 16 16 16 15 14 14 14 13 10 7 7 9 9 8 6 5 5 4 3 2 2 3 3 4 5 5 6 6 7 8 9 9 9
7 11 14 15 15 15 16 18 18 17 15 15 16 17 16 14 13 12 11 9 7 8 9 9 6 5 4 4 3 2 2 2 3 4 5 5 6 6 7 7 8 8 8 9
8 11 14 15 16 15 14 14 16 18 17 15 16 16 16 14 12 10 8 7 8 10 7 5 5 5 5 4 2 2 2 3 4 4 5 5 6 6 7 8 8 8 8 9
8 10 13 14 16 16 15 14 15 16 17 17 17 16 15 12 10 10 8 7 7 9 7 5 6 7 5 3 2 2 3 4 4 5 5 5 6 6 7 8 8 8 8 9
10 11 12 13 15 17 16 14 13 13 15 14 13 14 13 11 7 6 8 12 12 10 6 7 7 5 4 2 2 3 3 4 5 5 5 6 6 6 6 7 7 8 8 10
11 12 14 15 15 13 15 16 16 16 15 12 12 10 7 6 8 9 9 10 11 9 6 5 5 4 2 2 3 4 4 4 6 6 6 6 6 6 7 7 7 8 9 9
11 11 10 10 10 12 13 13 12 11 12 12 9 7 8 9 11 9 8 8 8 7 4 3 2 2 2 3 4 4 5 5 6 5 6 6 7 7 7 7 9 8 9 9
10 10 10 10 10 11 11 11 13 12 12 12 10 8 9 9 8 8 8 6 5 4 3 2 2 2 3 4 4 5 5 5 6 6 6 6 6 7 7 9 8 8 9 9
Wind_Direction
260 272 276 273 274 269 254 246 251 262 268 275 281 282 280 281 284 285 282 267 199 162 149 144 142 139 135 134 135 135 131 128 128 127 125 124 125 126 126 125 125 127 129 129
277 277 277 277 278 278 268 255 250 261 270 277 287 285 283 282 282 279 278 236 165 152 146 144 141 137 134 132 133 131 126 125 125 125 123 123 125 126 125 125 128 132 133 135
290 304 299 280 285 289 278 261 253 257 263 280 286 287 290 293 286 279 263 172 155 150 145 142 140 137 134 131 129 125 122 123 124 123 123 125 127 128 129 132 136 138 137 153
293 310 300 311 309 295 293 287 268 263 274 288 296 303 305 306 291 271 174 149 143 138 133 130 128 127 124 124 123 121 121 121 123 125 126 129 130 129 130 134 139 142 148 208
276 294 287 296 318 323 312 310 321 292 287 289 292 291 331 360 6 113 127 127 127 127 126 125 125 127 124 121 120 120 121 124 127 129 131 132 131 130 132 137 140 148 179 263
264 290 290 311 329 321 269 326 359 338 312 300 298 356 28 20 63 92 102 109 115 119 122 122 126 128 123 121 120 120 122 124 127 130 131 130 128 127 130 136 141 166 226 282
245 262 276 289 311 307 335 338 334 330 317 275 167 51 56 64 78 90 100 108 114 117 117 121 126 123 117 115 115 118 120 120 121 122 122 122 122 125 131 135 151 232 286 300
213 235 265 299 317 314 315 314 315 318 312 140 114 97 88 86 90 96 101 107 111 111 110 115 120 118 111 111 116 118 118 117 116 116 115 119 123 125 126 129 242 315 315 317
222 246 290 290 269 290 302 294 304 305 146 133 119 109 103 99 98 99 102 105 109 110 107 106 111 115 113 118 121 120 117 116 116 115 115 122 125 126 123 78 336 325 321 316
263 268 277 285 290 300 321 310 325 137 140 136 126 122 113 107 103 101 102 107 111 109 107 104 106 109 116 122 123 122 121 120 122 122 121 118 111 102 75 356 330 321 317 316
258 279 299 309 354 26 69 85 99 106 118 127 125 121 118 111 107 106 106 106 107 108 108 109 111 111 116 123 125 122 121 122 122 120 119 113 101 69 352 328 317 317 317 315
256 298 293 335 56 108 111 108 115 115 112 114 121 122 117 111 110 111 110 110 109 109 111 114 115 113 116 123 126 124 122 121 117 115 112 103 72 329 227 290 311 311 311 312
261 77 73 105 112 116 116 118 118 117 120 119 116 118 116 113 112 113 113 113 114 115 116 116 114 111 112 116 117 116 117 116 114 113 107 75 358 335 324 298 281 298 307 316
219 183 189 173 149 130 122 116 110 107 109 112 116 116 114 113 113 112 113 115 116 114 114 113 110 105 107 109 108 107 107 105 107 104 87 22 344 332 325 322 321 319 318 319
208 208 167 132 130 129 129 127 120 116 115 113 115 118 119 118 116 114 116 117 114 111 111 111 108 105 106 107 107 106 106 106 103 92 49 358 337 324 317 313 310 313 316 320
139 128 135 143 145 146 146 144 135 131 127 123 119 117 117 116 115 116 119 122 119 115 115 113 110 110 109 108 108 104 98 94 81 54 18 350 333 322 317 314 313 315 318 324
150 159 160 161 163 161 158 152 144 138 134 129 127 125 123 120 117 115 112 111 110 111 114 114 114 112 109 108 105 101 97 86 61 33 7 343 326 319 317 315 315 316 316 320
203 194 185 176 168 160 152 144 142 140 135 134 133 132 131 130 127 123 119 115 109 104 104 111 116 115 111 105 98 90 81 65 39 12 345 332 324 320 315 314 316 316 316 319
184 171 168 165 162 155 147 143 142 137 136 138 136 133 129 126 125 126 126 124 122 119 121 125 126 121 114 102 90 77 66 49 18 352 334 324 318 317 317 315 315 317 318 319
150 150 150 149 148 147 143 140 138 137 140 138 132 128 126 126 128 128 125 117 116 126 132 132 128 120 111 96 81 65 51 21 351 336 326 321 320 319 317 317 317 317 317 316
144 144 144 143 142 141 143 143 141 139 140 141 137 134 131 130 131 130 126 119 120 129 131 131 124 119 107 94 74 53 27 355 335 326 321 318 317 317 317 317 316 314 314 313
144 144 143 141 138 138 141 141 139 137 136 134 130 130 130 131 128 119 111 125 137 137 131 125 119 113 103 87 58 32 356 333 322 318 315 315 315 314 314 314 312 310 308 307
138 139 140 141 138 133 130 131 134 135 136 136 138 138 136 134 134 131 127 134 138 135 127 121 117 107 91 66 32 352 329 320 317 315 312 310 308 306 306 306 304 304 303 304
134 134 133 132 131 129 127 126 123 123 123 123 127 131 132 127 114 110 126 137 137 127 116 114 106 90 67 29 349 326 317 315 314 310 306 305 303 300 297 297 298 299 299 301
132 132 135 139 138 133 128 125 120 119 115 115 115 114 114 119 125 127 126 128 128 116 102 92 80 64 32 349 328 317 313 309 308 309 308 306 300 296 294 293 293 296 297 297
138 140 141 138 133 135 136 133 131 130 128 123 115 109 110 111 115 116 113 114 114 110 100 79 45 19 349 329 318 314 311 310 310 307 299 295 292 292 290 291 293 293 294 294
131 130 126 123 130 137 136 135 134 136 137 134 127 125 122 119 115 114 113 111 108 101 90 57 14 345 328 320 314 312 308 303 299 296 293 290 287 286 287 289 290 291 292 292
Height
1437 1432 1431 1428 1422 1420 1418 1412 1406 1386 1380 1373 1374 1375 1375 1374 1372 1371 1371 1371 1371 1372 1374 1377 1380 1385 1391 1398 1406 1413 1419 1426 1433 1440 1446 1452 1457 1461 1465 1468 1470 1471 1472 1472
1431 1423 1418 1413 1407 1403 1400 1397 1394 1388 1379 1373 1373 1373 1371 1370 1368 1367 1367 1368 1369 1371 1373 1377 1381 1386 1392 1399 1407 1414 1420 1427 1434 1441 1447 1452 1457 1460 1464 1466 1468 1469 1469 1468
1422 1412 1410 1402 1398 1395 1390 1387 1386 1382 1374 1370 1370 1370 1369 1367 1366 1364 1365 1367 1368 1370 1373 1378 1382 1388 1394 1401 1408 1416 1422 1429 1436 1442 1447 1452 1456 1460 1462 1465 1466 1466 1466 1465
1425 1416 1403 1396 1392 1391 1387 1381 1378 1375 1371 1370 1369 1369 1367 1366 1364 1363 1364 1366 1369 1371 1375 1379 1385 1391 1397 1404 1411 1418 1425 1432 1438 1443 1448 1452 1456 1459 1461 1463 1464 1464 1463 1461
1425 1415 1401 1391 1389 1389 1387 1380 1375 1372 1369 1368 1368 1368 1366 1365 1364 1364 1366 1368 1371 1374 1378 1383 1389 1395 1401 1408 1415 1422 1429 1435 1440 1445 1449 1453 1456 1458 1460 1461 1461 1460 1459 1457
1423 1416 1403 1390 1387 1387 1389 1378 1375 1373 1370 1369 1368 1365 1369 1369 1367 1368 1369 1372 1375 1379 1383 1389 1395 1401 1407 1414 1420 1426 1432 1437 1442 1447 1450 1453 1456 1457 1459 1459 1458 1457 1455 1453
1420 1415 1399 1388 1387 1387 1384 1381 1376 1374 1372 1371 1371 1373 1375 1373 1372 1373 1375 1377 1381 1385 1390 1396 1402 1408 1413 1419 1425 1430 1435 1440 1444 1448 1451 1453 1455 1456 1456 1456 1455 1454 1451 1448
1413 1410 1399 1386 1386 1385 1383 1379 1377 1375 1373 1372 1373 1375 1375 1376 1377 1378 1380 1383 1387 1391 1396 1402 1408 1413 1417 1423 1428 1433 1438 1442 1445 1449 1451 1453 1454 1454 1454 1453 1452 1450 1447 1445
1401 1395 1387 1387 1386 1384 1382 1379 1377 1375 1374 1373 1374 1376 1378 1379 1381 1383 1385 1388 1392 1397 1401 1407 1414 1419 1422 1427 1432 1436 1440 1443 1446 1449 1451 1452 1452 1452 1451 1450 1448 1446 1443 1441
1397 1388 1385 1384 1382 1381 1379 1377 1375 1374 1374 1375 1375 1378 1380 1382 1385 1388 1390 1394 1398 1402 1407 1412 1419 1424 1428 1432 1435 1439 1442 1445 1447 1449 1450 1450 1450 1449 1448 1447 1445 1442 1439 1436
1393 1386 1383 1382 1381 1380 1378 1377 1376 1375 1376 1377 1378 1381 1383 1386 1389 1392 1395 1399 1403 1408 1412 1418 1423 1428 1432 1435 1438 1441 1443 1445 1447 1448 1449 1449 1448 1447 1445 1443 1442 1439 1436 1432
1385 1384 1384 1383 1381 1380 1380 1379 1379 1378 1379 1382 1383 1385 1387 1390 1394 1397 1400 1405 1409 1414 1418 1423 1428 1431 1435 1438 1441 1443 1444 1445 1447 1447 1447 1447 1446 1445 1442 1441 1438 1435 1432 1428
1384 1383 1383 1382 1382 1381 1381 1381 1382 1383 1383 1385 1388 1391 1393 1395 1399 1403 1407 1412 1415 1419 1423 1427 1430 1434 1437 1440 1442 1444 1445 1445 1446 1446 1446 1445 1444 1442 1440 1438 1435 1431 1428 1424
1381 1382 1382 1381 1381 1382 1383 1384 1385 1387 1389 1391 1393 1396 1398 1401 1405 1409 1413 1417 1420 1424 1427 1430 1433 1436 1439 1441 1443 1444 1445 1445 1445 1445 1444 1443 1441 1439 1437 1434 1431 1427 1424 1420
1377 1379 1380 1380 1381 1382 1384 1386 1388 1390 1392 1395 1398 1401 1403 1406 1410 1414 1418 1421 1424 1427 1430 1434 1436 1438 1441 1442 1444 1444 1445 1445 1444 1443 1442 1441 1439 1436 1433 1430 1426 1423 1419 1415
1374 1376 1377 1378 1380 1382 1385 1388 1390 1392 1395 1398 1402 1405 1408 1411 1414 1418 1422 1426 1428 1430 1433 1436 1438 1440 1442 1443 1444 1444 1444 1444 1443 1442 1440 1438 1436 1433 1430 1426 1423 1419 1415 1411
1372 1373 1374 1376 1378 1381 1385 1388 1391 1393 1397 1401 1404 1408 1411 1414 1417 1421 1425 1428 1431 1433 1436 1439 1440 1442 1443 1444 1444 1444 1444 1443 1441 1440 1438 1435 1432 1429 1426 1423 1419 1415 1412 1408
1369 1371 1371 1372 1375 1379 1384 1388 1392 1396 1399 1403 1407 1410 1414 1416 1419 1423 1426 1430 1433 1435 1438 1440 1442 1443 1443 1444 1444 1443 1443 1441 1439 1437 1435 1432 1429 1426 1423 1420 1416 1412 1408 1404
1366 1368 1369 1372 1375 1379 1383 1388 1393 1397 1401 1405 1408 1412 1416 1419 1422 1425 1429 1432 1435 1437 1439 1441 1442 1443 1443 1443 1443 1442 1441 1439 1437 1434 1432 1429 1426 1423 1420 1416 1412 1408 1404 1400
1364 1366 1368 1370 1374 1379 1383 1388 1394 1398 1403 1406 1410 1413 1417 1421 1425 1428 1431 1434 1437 1439 1440 1441 1442 1443 1443 1443 1442 1440 1439 1436 1434 1432 1429 1426 1423 1420 1416 1413 1409 1405 1401 1397
1364 1365 1367 1370 1374 1379 1384 1389 1394 1399 1403 1408 1411 1414 1418 1422 1426 1429 1432 1435 1437 1439 1441 1442 1443 1443 1442 1441 1440 1438 1436 1434 1431 1429 1426 1423 1420 1417 1413 1410 1406 1402 1399 1395
1364 1365 1367 1370 1374 1379 1385 1391 1395 1400 1404 1408 1413 1416 1419 1423 1427 1431 1434 1436 1437 1439 1441 1442 1442 1442 1441 1440 1438 1436 1434 1431 1429 1426 1423 1420 1417 1413 1410 1407 1403 1400 1396 1392
1364 1366 1368 1371 1375 1380 1385 1391 1396 1401 1405 1409 1413 1417 1421 1424 1428 1431 1433 1436 1438 1439 1441 1441 1441 1440 1439 1438 1436 1433 1431 1428 1426 1423 1420 1417 1413 1410 1407 1404 1400 1397 1394 1390
1365 1367 1370 1373 1377 1381 1386 1392 1397 1402 1407 1412 1416 1420 1423 1426 1429 1432 1434 1436 1438 1439 1440 1440 1439 1438 1437 1435 1433 1431 1428 1425 1423 1420 1417 1413 1410 1407 1404 1401 1398 1395 1391 1388
1365 1368 1371 1374 1378 1383 1387 1393 1398 1404 1408 1413 1417 1421 1425 1428 1430 1432 1434 1436 1438 1439 1439 1438 1438 1436 1435 1433 1430 1428 1425 1422 1419 1416 1413 1410 1406 1403 1401 1398 1395 1392 1389 1385
1366 1369 1372 1376 1379 1384 1389 1394 1399 1404 1409 1412 1417 1421 1425 1428 1430 1432 1434 1436 1437 1438 1437 1437 1436 1434 1432 1430 1428 1425 1422 1419 1416 1412 1409 1406 1403 1400 1397 1395 1392 1389 1386 1383
1367 1369 1372 1376 1381 1387 1391 1396 1400 1405 1409 1413 1416 1421 1425 1428 1430 1432 1434 1435 1436 1436 1436 1435 1434 1432 1430 1427 1425 1422 1419 1415 1412 1409 1405 1402 1399 1397 1394 1392 1389 1386 1383 1381